Zurück zum Katalog

SL-12 DEB

LostHEO
NORAD 39803·DEBRIS·🇷🇺 Russia

Gestartet Sep 25, 2008 von Baikonur Cosmodrome

Loading…

Nächste Überflüge (nächste 24 Stunden)

TLE

VeraltetSource: Space-Track

Epoche: Mar 16, 2019, 17:00 UTC

1 39803U 08046Q   19075.70887062  .00000128  00000-0  23202-3 0  9994
2 39803  64.5040 268.5067 5701148  27.6377 353.6428  4.22677014 73998

Verfolge SL-12 DEB in Echtzeit mit AllMySat

Download on the App Store